BURSTCUBE

Last updated on Thu Sep 12 2024 00:02:08 GMT+0000 (Coordinated Universal Time)

1 59562U 98067WM 24255.31430157 .01146276 70480-3 19216-2 0 9999 2 59562 51.6182 230.9510 0004844 77.6267 282.5286 16.02328784 22881
UTC large
Height (km)
Speed (km/s)
/
Latitude / Longitude
Inclination (degrees)
Orbital Period (minutes)
Azimuth
Elevation
Range (km)
Doppler Factor

Next 0 passes for location: London (51.5072 / 0.1276)

Sorry there are no passes over London.